Location: Maynard F. Jordan Observatory
(44.9000°N, 68.6700°W)
Time: 11:22:19
(UTC-04:00)

Cosmos 2297 Rocket - Visible Passes

Search period start: 28 September 2016 00:00
Search period end: 08 October 2016 00:00
Orbit: 839 x 844 km, 71.0° (Epoch: 26 September)

Date Brightness Start Highest point End Pass type
(mag) Time Alt. Az. Time Alt. Az. Time Alt. Az.
28 Sep 2.6 04:01:58 40° S 04:03:49 59° ESE 04:09:23 10° NNE visible
28 Sep 3.3 05:43:49 11° WSW 05:48:16 25° NW 05:52:56 10° N visible
29 Sep 2.6 03:47:54 51° SE 03:48:44 56° ESE 03:54:16 10° NNE visible
29 Sep 3.3 05:29:44 15° W 05:33:09 26° NW 05:37:53 10° N visible
30 Sep 2.7 03:33:43 53° ESE 03:33:43 53° ESE 03:39:10 10° NE visible
30 Sep 3.2 05:15:33 20° W 05:18:01 27° NW 05:22:50 10° N visible
01 Oct 3.0 03:19:29 46° ENE 03:19:29 46° ENE 03:24:03 10° NE visible
01 Oct 3.2 05:01:18 25° W 05:02:54 29° NW 05:07:47 10° N visible
02 Oct 3.5 03:05:10 37° ENE 03:05:10 37° ENE 03:08:56 10° NE visible
02 Oct 3.1 04:47:00 29° WNW 04:47:46 30° NW 04:52:43 10° N visible
03 Oct 3.9 02:50:48 29° NE 02:50:48 29° NE 02:53:48 10° NE visible
03 Oct 3.1 04:32:38 31° NW 04:32:39 31° NW 04:37:39 10° N visible
04 Oct 4.2 02:36:23 23° NE 02:36:23 23° NE 02:38:41 10° NE visible
04 Oct 3.2 04:18:13 31° NW 04:18:13 31° NW 04:22:36 10° N visible
05 Oct 4.5 02:21:55 19° NE 02:21:55 19° NE 02:23:33 10° NE visible
05 Oct 3.4 04:03:45 30° NNW 04:03:45 30° NNW 04:07:32 10° N visible
06 Oct 4.8 02:07:26 15° NE 02:07:26 15° NE 02:08:25 10° NE visible
06 Oct 3.6 03:49:15 28° NNW 03:49:15 28° NNW 03:52:28 10° NNE visible
07 Oct 5.0 01:52:54 12° NE 01:52:54 12° NE 01:53:18 10° NE visible
07 Oct 3.8 03:34:43 25° N 03:34:43 25° N 03:37:24 10° NNE visible
